星链-3609 (STARLINK-3609 )

导读

STARLINK-3609是美国太空探索技术公司(SpaceX)星链互联网卫星星座中的一颗卫星,于2022年2月25日发射入轨。星链计划旨在搭建全球卫星互联网,为全球提供高速低延迟网络服务,该卫星作为星座组网单元,助力提升星座覆盖密度与服务能力。

Basic Information
目录编号:
51808
目录名称:
STARLINK-3609
国际标识:
2022-017AS
轨道中心:
EARTH
卫星名称:
星链-3609
卫星全名:
星链-3609 (STARLINK-3609 )
卫星状态:
在轨 (已飞行1573 天)
发射日期:
2022-02-25 UTC
国别 :
美国 (US)
星等 :
--
Orbit Information
数据来源 国际轨道数据 AOE轨道数据
星历时间 2026-06-17T18:45:35+0800
8小时前
查看轨道信息
2026-06-15T07:00:00+0800
2天前
查看轨道信息
半长轴 6917.871km 6917.923km
偏心率 0.000085 0.0001317
轨道倾角 53.160° 53.158°
近地点辐角 101.518° 115.025°
升交点赤经 251.188° 262.379°
平近点角 258.591° 32.521°
近地点 539.145km 538.874km
远地点 540.323km 540.698km
周期 95.437分钟 95.438分钟
每日圈数 15.088433 15.088262
Detailed Information
固有亮度:
5
最大亮度:
2.5
卫星平台:
Starlink v1.5
覆盖范围:
全球
运营商:
太空探索技术公司
运营商所在国:
美国
制造商(研发单位):
太空探索技术公司
制造商所在国:
美国
使用方式:
暂无
Satellite Introduction
星链(Starlink)计划是由太空探索技术公司(SpaceX)提出的一个巨型低轨卫星互联网星座项目,计划在2019年至2024年间在太空搭建由约1.2万颗卫星组成的“星链”网络,其中1584颗将部署在地球上空550千米处的近地轨道,并从2020年开始工作。该卫星仍在工作。
2D Orbit Map
3D Orbit Map
Orbit Altitude Analysis Chart
Orbit Inclination Analysis Chart
Orbit Comprehensive Analysis Chart
View Comprehensive Chart